Weather reports worldwide

Advertisment
Eskdalemuir, United Kingdom (3162): temperature & dewpoint: 10.07.2018 23:00:00 - 16.07.2018 23:00:00 (BST)Eskdalemuir, United Kingdom (3162): temperature -20cm & temperature -100cm: 10.07.2018 23:00:00 - 16.07.2018 23:00:00 (BST)Eskdalemuir, United Kingdom (3162): wind speed & gusts: 10.07.2018 23:00:00 - 16.07.2018 23:00:00 (BST)Eskdalemuir, United Kingdom (3162): wind direction: 10.07.2018 23:00:00 - 16.07.2018 23:00:00 (BST)Eskdalemuir, United Kingdom (3162): reduced air pressure: 10.07.2018 23:00:00 - 16.07.2018 23:00:00 (BST)Eskdalemuir, United Kingdom (3162): visibility: 10.07.2018 23:00:00 - 16.07.2018 23:00:00 (BST)Eskdalemuir, United Kingdom (3162): sunshine duration: 10.07.2018 23:00:00 - 16.07.2018 23:00:00 (BST)Eskdalemuir, United Kingdom (3162): precipitation: 10.07.2018 23:00:00 - 16.07.2018 23:00:00 (BST)
Date & Time tt [°C] td [°C] tt -20cm [°C] tt -100cm [°C] ff [km/h] ff [kn] fx [km/h] fx [kn] dd ppp [hPa] vv [km] sd [min] rr [mm]
16.07.2018 23:00:00 12,7 12,5 - - 4 2 - - SE 1013,5 15 0 -
16.07.2018 22:00:00 13,1 12,8 - - 2 1 - - ESE 1013,4 13 0 -
16.07.2018 21:00:00 13,3 12,7 - - 8 4 - - SW 1013,3 6 0 1,0
16.07.2018 20:00:00 13,8 12,6 - - 4 2 - - E 1012,8 11 0 0,4
16.07.2018 19:00:00 15,3 11,4 - - 15 8 - - S 1012,6 45 0 0,0
16.07.2018 18:00:00 16,4 11,7 - - 13 7 - - SSW 1012,2 35 0 0,0
16.07.2018 17:00:00 17,5 12,4 - - 18 10 - - SSW 1012,0 40 12 0,0
16.07.2018 16:00:00 18,7 12,8 - - 16 9 - - SSW 1012,1 35 12 0,0
16.07.2018 15:00:00 17,2 12,8 - - 18 10 - - S 1012,3 35 6 0,0
16.07.2018 14:00:00 17,1 12,1 - - 15 8 - - SSW 1012,5 35 18 0,0
16.07.2018 13:00:00 17,2 12,5 - - 16 9 - - SSW 1012,6 40 6 0,0
16.07.2018 12:00:00 16,0 12,1 - - 15 8 - - SSW 1012,8 45 0 0,0
16.07.2018 11:00:00 15,9 13,4 - - 15 8 - - SW 1012,3 50 0 0,0
16.07.2018 10:00:00 15,2 14,6 17,0 14,9 18 10 - - SSW 1012,1 8 0 0,2
16.07.2018 09:00:00 15,2 15,1 - - 21 11 - - SSW 1011,8 3,0 0 0,0
16.07.2018 08:00:00 15,1 15,0 - - 13 7 - - S 1011,7 3,5 0 0,2
16.07.2018 07:00:00 14,9 14,9 - - 15 8 - - S 1011,6 2,1 0 0,0
16.07.2018 06:00:00 15,0 14,8 - - 15 8 - - S 1011,6 7 0 0,6
16.07.2018 05:00:00 15,0 15,0 - - 15 8 - - S 1011,7 2,1 0 0,4
16.07.2018 04:00:00 15,3 15,0 - - 18 10 - - S 1011,9 4,0 0 0,4
16.07.2018 03:00:00 15,4 15,1 - - 16 9 - - S 1012,1 6 0 1,0
16.07.2018 02:00:00 15,3 15,1 - - 13 7 - - S 1012,5 3,0 0 1,0
16.07.2018 01:00:00 15,2 14,9 - - 13 7 - - S 1012,7 3,5 - 1,2
16.07.2018 00:00:00 15,2 15,0 - - 15 8 - - S 1012,9 2,7 0 1,2
15.07.2018 23:00:00 15,0 14,7 - - 13 7 - - S 1013,2 3,1 0 1,2
15.07.2018 22:00:00 15,4 14,7 - - 13 7 - - S 1013,2 4,0 0 0,0
15.07.2018 21:00:00 16,0 14,2 - - 13 7 - - S 1013,2 23 0 0,0
15.07.2018 20:00:00 16,3 14,2 - - 15 8 - - S 1013,3 28 0 0,0
15.07.2018 19:00:00 17,5 13,9 - - 18 10 - - SSE 1013,3 40 12 0,0
15.07.2018 18:00:00 18,0 14,4 - - 24 13 - - S 1013,5 35 0 0,0
15.07.2018 17:00:00 17,4 14,1 - - 21 11 - - SSW 1013,8 24 0 0,0
15.07.2018 16:00:00 17,0 13,8 - - 24 13 - - SSW 1014,1 35 0 0,0
15.07.2018 15:00:00 17,1 14,1 - - 28 15 - - S 1014,1 28 0 0,0
15.07.2018 14:00:00 18,3 14,3 - - 26 14 48 26 S 1014,1 40 18 0,0
15.07.2018 13:00:00 20,2 13,4 - - 28 15 - - SSW 1013,9 50 18 0,0
15.07.2018 12:00:00 18,9 14,0 - - 29 16 - - SSW 1014,1 19 6 0,0
15.07.2018 11:00:00 16,9 14,3 - - 18 10 - - SSW 1014,6 27 0 0,0
15.07.2018 10:00:00 16,3 13,3 17,2 14,7 15 8 - - S 1014,8 21 0 0,0
15.07.2018 09:00:00 15,8 13,5 - - 15 8 - - S 1014,9 24 0 0,0
15.07.2018 08:00:00 15,0 13,4 - - 13 7 - - S 1015,1 12 0 0,0
15.07.2018 07:00:00 14,8 13,3 - - 13 7 - - SSW 1015,1 16 0 0,0
15.07.2018 06:00:00 14,6 13,2 - - 11 6 - - S 1015,1 20 0 0,0
15.07.2018 05:00:00 14,8 13,5 - - 9 5 - - S 1015,1 18 0 0,0
15.07.2018 04:00:00 15,1 13,7 - - 11 6 - - S 1015,5 17 0 0,0
15.07.2018 03:00:00 15,0 13,7 - - 11 6 - - SSW 1015,7 20 0 0,0
15.07.2018 02:00:00 14,8 13,5 - - 11 6 - - SSW 1016,0 18 0 0,0
15.07.2018 01:00:00 14,2 13,4 - - 13 7 - - S 1016,5 15 - 0,0
15.07.2018 00:00:00 12,9 11,9 - - 5 3 - - S 1017,0 23 0 0,0
14.07.2018 23:00:00 13,5 11,9 - - 8 4 - - S 1017,2 30 0 0,0
14.07.2018 22:00:00 14,4 11,7 - - 9 5 - - S 1017,1 35 6 0,0
14.07.2018 21:00:00 16,0 11,5 - - 15 8 - - SSW 1016,7 50 48 0,0
14.07.2018 20:00:00 17,4 11,9 - - 21 11 - - S 1016,7 40 60 0,0
14.07.2018 19:00:00 18,2 12,9 - - 21 11 - - S 1016,7 35 60 0,0
14.07.2018 18:00:00 19,2 13,1 - - 31 17 - - S 1016,8 35 60 0,0
14.07.2018 17:00:00 19,2 13,3 - - 24 13 - - SSW 1016,9 30 54 0,0
14.07.2018 16:00:00 19,0 14,4 - - 22 12 - - S 1017,3 15 54 0,0
14.07.2018 15:00:00 19,7 13,8 - - 26 14 - - SSW 1017,6 29 36 0,0
14.07.2018 14:00:00 18,9 13,9 - - 24 13 - - S 1018,1 35 18 0,0
14.07.2018 13:00:00 18,0 13,2 - - 24 13 - - S 1018,5 30 0 0,0
14.07.2018 12:00:00 18,0 12,9 - - 22 12 - - S 1018,6 18 18 0,0
14.07.2018 11:00:00 18,2 12,2 - - 24 13 - - SSW 1018,7 29 54 0,0
14.07.2018 10:00:00 16,7 12,5 17,2 14,7 16 9 - - SW 1019,2 26 54 0,0
14.07.2018 09:00:00 14,4 11,6 - - 16 9 - - S 1019,7 15 54 0,0
14.07.2018 08:00:00 11,7 11,7 - - 4 2 - - SE 1020,1 9 0 0,0
14.07.2018 07:00:00 10,2 10,2 - - 2 1 - - SSE 1020,5 0,1 0 0,0
14.07.2018 06:00:00 10,0 10,0 - - 2 1 - - WNW 1020,5 0,1 0 0,0
14.07.2018 05:00:00 10,2 10,1 - - 2 1 - - WNW 1020,4 0,1 0 0,0
14.07.2018 04:00:00 10,0 10,0 - - 4 2 - - NNW 1020,8 0,1 0 0,0
14.07.2018 03:00:00 9,9 9,9 - - 2 1 - - SSE 1021,0 0,1 0 0,0
14.07.2018 02:00:00 10,4 10,3 - - 4 2 - - SSW 1021,1 6 0 0,0
14.07.2018 01:00:00 10,7 10,7 - - 2 1 - - NNW 1021,1 5 - 0,0
14.07.2018 00:00:00 11,1 11,0 - - 2 1 - - ENE 1021,5 5 0 0,0
13.07.2018 23:00:00 12,7 12,2 - - 2 1 - - N 1021,4 15 0 0,0
13.07.2018 22:00:00 14,0 12,4 - - 8 4 - - S 1021,0 25 0 0,0
13.07.2018 21:00:00 15,9 14,2 - - 9 5 - - S 1020,5 15 0 0,0
13.07.2018 20:00:00 16,8 14,5 - - 13 7 - - S 1020,4 20 30 0,0
13.07.2018 19:00:00 17,8 14,2 - - 11 6 - - SW 1020,6 45 36 0,0
13.07.2018 18:00:00 17,9 14,1 - - 15 8 - - SSW 1020,9 18 6 0,0
13.07.2018 17:00:00 16,5 14,5 - - 16 9 - - SSW 1021,4 10 0 0,0
13.07.2018 16:00:00 17,7 14,6 - - 15 8 - - SW 1021,4 15 0 0,0
13.07.2018 15:00:00 17,5 14,3 - - 11 6 - - SSW 1021,8 14 0 0,0
13.07.2018 14:00:00 16,9 14,5 - - 9 5 - - SSW 1022,0 16 0 0,0
13.07.2018 13:00:00 17,1 13,7 - - 9 5 - - SSE 1022,2 20 0 0,0
13.07.2018 12:00:00 17,0 12,9 - - 8 4 - - SSE 1022,2 30 0 0,0
13.07.2018 11:00:00 16,6 13,3 - - 4 2 - - E 1022,3 40 0 0,0
13.07.2018 10:00:00 16,3 13,6 17,5 14,7 4 2 - - NE 1022,3 35 0 0,0
13.07.2018 09:00:00 14,5 12,9 - - 5 3 - - N 1022,7 35 0 0,0
13.07.2018 08:00:00 13,8 12,6 - - 2 1 - - NNW 1023,0 26 0 0,0
13.07.2018 07:00:00 13,4 12,2 - - 2 1 - - NNE 1022,8 35 0 0,0
13.07.2018 06:00:00 13,0 12,1 - - 9 5 - - N 1022,9 20 0 0,0
13.07.2018 05:00:00 12,8 11,9 - - 5 3 - - NNW 1023,1 16 0 0,0
13.07.2018 04:00:00 12,8 12,0 - - 9 5 - - N 1023,2 16 0 0,0
13.07.2018 03:00:00 12,8 12,1 - - 9 5 - - N 1023,4 19 0 0,0
13.07.2018 02:00:00 12,8 12,1 - - 11 6 - - N 1023,5 25 0 0,0
13.07.2018 01:00:00 12,8 12,3 - - 8 4 - - N 1023,8 35 - 0,0
13.07.2018 00:00:00 13,1 12,6 - - 11 6 - - N 1024,0 7 0 0,4
12.07.2018 23:00:00 14,5 11,8 - - 11 6 - - NNE 1023,9 30 0 0,0
12.07.2018 22:00:00 15,6 11,6 - - 8 4 - - N 1023,3 50 0 0,0
12.07.2018 21:00:00 16,4 12,3 - - 8 4 - - NE 1022,9 50 0 0,0
12.07.2018 20:00:00 17,3 12,5 - - 8 4 - - NNE 1022,4 50 6 0,0
12.07.2018 19:00:00 18,5 12,7 - - 15 8 - - ENE 1022,0 50 0 0,0
12.07.2018 18:00:00 20,2 12,7 - - 15 8 - - ENE 1021,6 35 12 0,0
12.07.2018 17:00:00 20,1 12,9 - - 8 4 - - NE 1021,9 50 0 0,0
12.07.2018 16:00:00 20,7 11,8 - - 5 3 - - NNE 1022,0 50 18 0,0
12.07.2018 15:00:00 20,7 12,6 - - 9 5 - - ENE 1022,0 40 30 0,0
12.07.2018 14:00:00 20,0 12,0 - - 9 5 - - N 1022,4 35 18 0,0
12.07.2018 13:00:00 20,1 11,7 - - 9 5 - - ENE 1022,6 40 30 0,0
12.07.2018 12:00:00 18,5 11,4 - - 9 5 - - NNE 1022,9 35 12 0,0
12.07.2018 11:00:00 18,5 12,0 - - 11 6 - - N 1023,0 35 48 0,0
12.07.2018 10:00:00 16,4 11,3 17,2 14,7 11 6 - - N 1023,2 40 48 0,0
12.07.2018 09:00:00 14,6 10,6 - - 9 5 - - N 1023,5 50 30 0,0
12.07.2018 08:00:00 13,8 10,3 - - 9 5 - - ENE 1023,7 40 12 0,0
12.07.2018 07:00:00 12,5 10,2 - - 9 5 - - NNE 1023,7 50 0 0,0
12.07.2018 06:00:00 10,6 9,7 - - 4 2 - - NE 1023,7 40 0 0,0
12.07.2018 05:00:00 11,6 9,8 - - 9 5 - - NNE 1023,6 50 0 0,0
12.07.2018 04:00:00 11,6 9,8 - - 11 6 - - N 1023,7 50 0 0,0
12.07.2018 03:00:00 11,7 10,0 - - 11 6 - - N 1023,9 50 0 0,0
12.07.2018 02:00:00 11,6 10,4 - - 15 8 - - N 1024,1 45 0 0,0
12.07.2018 01:00:00 11,0 9,9 - - 8 4 - - N 1024,0 45 - 0,0
12.07.2018 00:00:00 12,6 10,5 - - 13 7 - - N 1023,8 45 0 0,0
11.07.2018 23:00:00 13,5 11,0 - - 9 5 - - N 1023,5 50 0 0,0
11.07.2018 22:00:00 14,9 11,2 - - 8 4 - - N 1023,0 50 0 0,0
11.07.2018 21:00:00 16,1 11,7 - - 8 4 - - NNE 1022,6 50 0 0,0
11.07.2018 20:00:00 17,3 11,7 - - 8 4 - - NNE 1022,6 9 0 0,0
11.07.2018 19:00:00 18,5 12,2 - - 11 6 - - NE 1022,2 50 12 0,0
11.07.2018 18:00:00 20,3 11,6 - - 5 3 - - NW 1021,6 50 12 0,0
11.07.2018 17:00:00 20,3 11,1 - - 8 4 - - N 1021,8 40 36 0,0
11.07.2018 16:00:00 20,7 11,2 - - 13 7 - - NNE 1021,8 40 42 0,0
11.07.2018 15:00:00 20,2 11,4 - - 9 5 - - N 1022,3 50 48 0,0
11.07.2018 14:00:00 18,3 10,1 - - 5 3 - - E 1022,8 40 30 0,0
11.07.2018 13:00:00 16,9 10,4 - - 11 6 - - NNW 1023,3 40 12 0,0
11.07.2018 12:00:00 16,4 10,8 - - 15 8 - - NE 1023,6 30 12 0,0
11.07.2018 11:00:00 16,4 11,4 - - 13 7 - - NNE 1023,9 40 12 0,0
11.07.2018 10:00:00 13,4 10,5 17,2 14,7 11 6 - - N 1024,6 40 0 0,0
11.07.2018 09:00:00 12,1 10,5 - - 8 4 - - NE 1024,9 20 0 0,0
11.07.2018 08:00:00 11,2 10,4 - - 9 5 - - N 1025,1 6 0 0,0
11.07.2018 07:00:00 9,4 9,1 - - 9 5 - - N 1025,1 23 6 0,0
11.07.2018 06:00:00 6,6 6,5 - - 4 2 - - NW 1025,2 9 6 0,0
11.07.2018 05:00:00 7,4 7,1 - - 4 2 - - NNW 1025,2 14 0 0,0
11.07.2018 04:00:00 7,4 7,3 - - 2 1 - - NW 1025,4 9 0 0,0
11.07.2018 03:00:00 7,7 7,3 - - 5 3 - - NNW 1025,4 13 0 0,0
11.07.2018 02:00:00 8,8 8,2 - - 9 5 - - N 1025,6 35 0 0,0
11.07.2018 01:00:00 10,1 8,9 - - 5 3 - - NNW 1025,7 50 - 0,0
11.07.2018 00:00:00 11,0 9,7 - - 8 4 - - NNW 1025,8 50 0 0,0
10.07.2018 23:00:00 11,3 9,8 - - 5 3 - - WNW 1025,9 50 0 0,0

tt = temperature
td = dewpoint
tt -20cm = temperature -20cm
tt -100cm = temperature -100cm
ff = wind speed
fx = gusts
dd = wind direction
ppp = reduced air pressure
vv = visibility
sd = sunshine duration
rr = precipitation

Next stations